[[{"header":{"parameterUnit":"m.s-1","parameterCategory":1,"la1":30.2991,"la2":30.254,"lo1":-89.0895,"lo2":-89.0444,"dy":0.0017,"dx":0.0017,"nx":28,"ny":28,"refTime":"2023-11-13T09:00:00:Z","depth":0,"parameterNumber":2,"parameterNumberName":"U-component_of_WINDS"},"data":[0,0,0,0,0,0,0,0,0,0,0,0,0,0,0,0,0,0,0,0,0,0,0,0,0,0,0,0,0,0,0,0,0,0,0,0,0,0,0,0,0,0,0,0,0,0,0,0,0,0,0,0,0,0,0,0,0,0,-9.5143,-9.5144,0,-9.5222,-9.5223,-9.5224,-9.5008,-9.5001,-9.4995,-9.4988,-9.507,-9.5079,-9.5087,0,0,0,0,0,0,0,0,0,0,0,0,0,-9.4804,-9.4811,-9.5143,-9.5144,-9.5145,-9.5222,-9.5223,-9.5224,-9.5009,-9.5001,-9.4993,-9.4985,-9.5068,-9.5078,-9.5088,0,0,0,0,0,0,0,0,0,0,0,0,0,-9.4924,-9.4814,-9.5142,-9.5047,-9.5039,-9.5222,-9.5223,-9.5225,-9.5011,-9.5001,-9.4991,-9.4981,-9.5064,-9.5077,-9.5089,-9.5369,0,0,-9.5128,-9.5133,0,0,0,0,0,0,0,0,-9.4918,-9.4937,-9.506,-9.5054,-9.5045,-9.5095,-9.5134,-9.5273,-9.5014,-9.5022,-9.4988,-9.4977,-9.5087,-9.5097,-9.5134,-9.5373,-9.5376,-9.5129,-9.5137,-9.5142,-9.5146,0,0,0,0,0,0,0,-9.491,-9.4932,-9.5174,-9.5062,-9.5053,-9.5,-9.5006,-9.5159,-9.511,-9.502,-9.5005,-9.5017,-9.5081,-9.5122,-9.5134,-9.5377,-9.5129,-9.514,-9.5148,-9.5153,-9.5848,-9.5859,0,0,0,0,0,0,-9.4914,-9.4927,-9.5171,-9.5176,-9.4955,-9.5014,-9.5021,-9.5089,-9.5107,-9.5101,-9.5026,-9.5007,-9.5106,-9.512,-9.5136,-9.5463,-9.5142,-9.5154,-9.5161,-9.5838,-9.5851,-9.5862,0,0,0,0,0,0,-9.4907,-9.4937,-9.5168,-9.5047,-9.5073,-9.503,-9.5109,-9.5096,-9.5137,-9.5112,-9.5102,-9.5077,-9.5098,-9.5119,-9.5312,-9.5463,-9.5159,-9.5171,-9.5825,-9.5842,-9.5857,-9.6122,0,0,0,0,0,0,-9.4898,-9.4936,-9.5042,-9.5051,-9.508,-9.5344,-9.5119,-9.5105,-9.516,-9.5136,-9.5157,-9.5151,-9.5092,-9.5295,-9.5325,-9.5475,-9.5181,-9.5811,-9.5832,-9.5851,-9.6099,-9.6145,-9.6184,0,0,0,0,0,-9.4887,-9.5114,-9.5049,-9.5079,-9.5211,-9.5353,-9.5369,-9.5296,-9.5173,-9.5278,-9.5262,-9.515,-9.5443,-9.5316,-9.5349,-9.5505,-9.5801,-9.5826,-9.585,-9.608,-9.6136,-9.6183,0,0,0,0,0,0,-9.5123,-9.5113,-9.5041,-9.5278,-9.5318,-9.5316,-9.5447,-9.5358,-9.5434,-9.5408,-9.5315,-9.5322,-9.5533,-9.5538,-9.5398,-9.5776,-9.5601,-9.5633,-9.5765,-9.5818,-9.5859,-9.5853,-9.5191,0,0,0,0,0,-9.5203,-9.5319,-9.5304,-9.5514,-9.5538,-9.5491,-9.5549,-9.549,-9.5527,-9.5543,-9.554,-9.5582,-9.5682,-9.575,-9.5842,-9.61,-9.6101,-9.6223,-9.6266,-9.6301,-9.6329,-9.6465,-9.6519,-9.5943,-9.5943,-9.5942,0,0,-9.5369,-9.5378,-9.5456,-9.5562,-9.5586,-9.5708,-9.5506,-9.5643,-9.5732,-9.5564,-9.5746,-9.5747,-9.5786,-9.6013,-9.6113,-9.6024,-9.6489,-9.6332,-9.6361,-9.637,-9.6496,-9.655,-9.6599,-9.596,-9.5957,-9.5954,0,0,-9.5732,-9.5752,-9.5928,-9.5957,-9.5996,-9.5962,-9.6006,-9.6018,-9.6011,-9.6193,-9.6069,-9.6174,-9.635,-9.6383,-9.6423,-9.6801,-9.67,-9.6833,-9.7055,-9.7188,-9.7233,-9.7273,-9.7406,-9.7455,-9.6862,-9.6863,-9.6863,0,-9.5933,-9.6111,-9.603,-9.6176,-9.6226,-9.608,-9.6258,-9.6289,-9.6357,-9.6395,-9.6295,-9.6512,-9.6529,-9.676,-9.6853,-9.6891,-9.6936,-9.6829,-9.7234,-9.7273,-9.7308,-9.7434,-9.7485,-9.6878,-9.6877,-9.6875,-9.6873,0,-9.6355,-9.6481,-9.6619,-9.6688,-9.6753,-9.6915,-9.6858,-9.6935,-9.6871,-9.6848,-9.7035,-9.705,-9.7141,-9.7192,-9.7131,-9.7416,-9.736,-9.7249,-9.707,-9.738,-9.7497,-9.7545,-9.6901,-9.6895,-9.6891,-9.6887,0,0,-9.6868,-9.689,-9.6942,-9.6971,-9.7005,-9.71,-9.7255,-9.7345,-9.7411,-9.7464,-9.759,-9.7743,-9.7641,-9.7686,-9.7627,-9.7745,-9.8042,-9.7619,-9.7618,-9.7695,-9.8356,-9.8437,-9.8495,-9.7977,-9.7986,-9.7993,-9.8352,0,-9.7224,-9.749,-9.7422,-9.7686,-9.78,-9.7664,-9.7799,-9.7834,-9.7818,-9.7913,-9.7894,-9.8004,-9.7861,-9.7887,-9.7998,-9.7983,-9.8173,-9.7956,-9.8093,-9.8099,-9.8085,-9.8556,-9.8642,-9.898,-9.8397,-9.8405,-9.841,0,-9.7675,-9.7745,-9.802,-9.8034,-9.808,-9.8203,-9.8279,-9.8372,-9.8409,-9.8389,-9.8441,-9.8359,-9.8512,-9.8334,-9.8543,-9.8397,-9.8449,-9.8451,-9.8462,-9.847,-9.8271,-9.8574,-9.9086,-9.9137,-9.8481,-9.8476,-9.8471,0,-9.8019,-9.8182,-9.8367,-9.8397,-9.8418,-9.8507,-9.8521,-9.8548,-9.8606,-9.8674,-9.871,-9.8795,-9.8841,-9.8909,-9.8852,-9.8728,-9.907,-9.8887,-9.9056,-9.9058,-9.9132,-9.9128,-9.9658,-9.9171,-9.917,-9.9169,-9.9168,0,-9.8423,-9.8596,-9.8521,-9.8635,-9.8826,-9.8747,-9.8937,-9.8935,-9.8961,-9.9071,-9.896,-9.9066,-9.8986,-9.9086,-9.9043,-9.9221,-9.9244,-9.9231,-9.9217,-9.924,-9.9241,-9.9271,-9.9245,-9.9182,-9.918,-9.9177,-9.9175,0,-9.8838,-9.8795,-9.8987,-9.8993,-9.8998,-9.9138,-9.9142,-9.9248,-9.9224,-9.9366,-9.9394,-9.9357,-9.9469,-9.942,-9.9537,-9.9508,-9.9737,-9.9693,-9.9725,-9.9712,-9.9883,-9.9867,-10.0449,-10.052,-9.999,-9.9995,-10.0,0,-9.9097,-9.9227,-9.9247,-9.9313,-9.9334,-9.9442,-9.9501,-9.9429,-9.9495,-9.9548,-9.9647,-9.9749,-9.9826,-10.0011,-9.9995,-10.0084,-10.004,-10.0238,-10.0052,-10.0071,-10.004,-10.0032,-10.0044,-10.0274,-10.028,-10.0285,-10.0289,0,-9.9561,-9.9534,-9.9622,-9.9706,-9.9779,-9.9841,-9.9892,-9.9953,-9.9883,-9.9963,-10.0076,-10.0136,-10.0256,-10.0359,-10.0438,-10.045,-10.0359,-10.0348,-10.0392,-10.0415,-10.0427,-10.042,-9.9823,-10.0335,-10.033,-10.0327,-10.0324,-10.0322,-9.9904,-10.0013,-10.0044,-10.0147,-10.0178,-10.023,-10.0329,-10.0318,-10.0411,-10.0502,-10.0455,-10.0586,-10.062,-10.0717,-10.0743,-10.0844,-10.0766,-10.083,-10.0845,-10.0861,-10.0883,-10.0413,-10.0859,-10.0857,-10.0856,-10.0855,-10.0854,0,-10.036,-10.0373,-10.0469,-10.0545,-10.0627,-10.0535,-10.0588,-10.0661,-10.0778,-10.0818,-10.0897,-10.1027,-10.1126,-10.1118,-10.1209,-10.1292,-10.1252,-10.1318,-10.131,-10.1314,-10.0948,-10.0901,-10.1348,-10.1348,-10.1348,-10.1348,-10.1348,-10.1348,-10.0606,-10.0785,-10.0762,-10.0956,-10.0968,-10.1095,-10.1134,-10.118,-10.1211,-10.1361,-10.1443,-10.1437,-10.1458,-10.155,-10.1637,-10.1632,-10.167,-10.1751,-10.1731,-10.1389,-10.134,-10.1293,-10.1247,-10.1761,-10.1761,-10.2087,-10.209,-10.2092]},{"header":{"parameterUnit":"m.s-1","parameterCategory":1,"la1":30.2991,"la2":30.254,"lo1":-89.0895,"lo2":-89.0444,"dy":0.0017,"dx":0.0017,"nx":28,"ny":28,"refTime":"2023-11-13T09:00:00:Z","depth":0,"parameterNumber":3,"parameterNumberName":"V-component_of_WINDS"},"data":[0,0,0,0,0,0,0,0,0,0,0,0,0,0,0,0,0,0,0,0,0,0,0,0,0,0,0,0,0,0,0,0,0,0,0,0,0,0,0,0,0,0,0,0,0,0,0,0,0,0,0,0,0,0,0,0,0,0,-0.6964,-0.6964,0,-0.6901,-0.6901,-0.69,-0.6897,-0.6897,-0.6898,-0.6899,-0.6832,-0.683,-0.6827,0,0,0,0,0,0,0,0,0,0,0,0,0,-0.7079,-0.7077,-0.6965,-0.6964,-0.6963,-0.6901,-0.6901,-0.69,-0.6897,-0.6897,-0.6898,-0.6899,-0.6833,-0.683,-0.6827,0,0,0,0,0,0,0,0,0,0,0,0,0,-0.7024,-0.7076,-0.6965,-0.6954,-0.6952,-0.6902,-0.69,-0.6899,-0.6896,-0.6897,-0.6899,-0.69,-0.6834,-0.683,-0.6827,-0.6782,0,0,-0.6815,-0.6814,0,0,0,0,0,0,0,0,-0.7027,-0.7019,-0.6956,-0.6955,-0.6953,-0.6908,-0.6916,-0.686,-0.6896,-0.6918,-0.6899,-0.69,-0.6856,-0.6851,-0.6837,-0.6778,-0.6776,-0.6815,-0.6813,-0.6811,-0.681,0,0,0,0,0,0,0,-0.7031,-0.7022,-0.6939,-0.6955,-0.6953,-0.6951,-0.6945,-0.6906,-0.6881,-0.6916,-0.6915,-0.6908,-0.6856,-0.684,-0.6835,-0.6775,-0.6815,-0.6812,-0.681,-0.6808,-0.6673,-0.6671,0,0,0,0,0,0,-0.7037,-0.7025,-0.6941,-0.6938,-0.6993,-0.6948,-0.6941,-0.6921,-0.6882,-0.6877,-0.6907,-0.6908,-0.6846,-0.6839,-0.6833,-0.6775,-0.6811,-0.6808,-0.6806,-0.6674,-0.6672,-0.6671,0,0,0,0,0,0,-0.7039,-0.703,-0.6944,-0.6981,-0.697,-0.6945,-0.6923,-0.6919,-0.6904,-0.6875,-0.6871,-0.6896,-0.6846,-0.6838,-0.6794,-0.6772,-0.6806,-0.6803,-0.6676,-0.6674,-0.6672,-0.666,0,0,0,0,0,0,-0.7043,-0.703,-0.7014,-0.6981,-0.6968,-0.6907,-0.6922,-0.6917,-0.6898,-0.6898,-0.6864,-0.6859,-0.6847,-0.6799,-0.679,-0.6768,-0.68,-0.6678,-0.6675,-0.6672,-0.6662,-0.6658,-0.6654,0,0,0,0,0,-0.7047,-0.7013,-0.7013,-0.7003,-0.6947,-0.6906,-0.6899,-0.6886,-0.6896,-0.6878,-0.686,-0.686,-0.6777,-0.6795,-0.6784,-0.6761,-0.6679,-0.6676,-0.6673,-0.6664,-0.6659,-0.6654,0,0,0,0,0,0,-0.7044,-0.7009,-0.7008,-0.6964,-0.6938,-0.6906,-0.6883,-0.6881,-0.6851,-0.6853,-0.6838,-0.683,-0.6785,-0.6769,-0.679,-0.6713,-0.6729,-0.6723,-0.6726,-0.672,-0.6716,-0.6721,-0.6797,0,0,0,0,0,-0.7039,-0.7009,-0.6979,-0.6943,-0.693,-0.6909,-0.689,-0.6882,-0.6855,-0.6844,-0.6822,-0.6794,-0.6761,-0.674,-0.6709,-0.666,-0.6651,-0.6639,-0.6635,-0.6632,-0.6627,-0.6597,-0.659,-0.6661,-0.6661,-0.6661,0,0,-0.7027,-0.7004,-0.6986,-0.6941,-0.6921,-0.6888,-0.6899,-0.6866,-0.6841,-0.6838,-0.6795,-0.6778,-0.6746,-0.6698,-0.6676,-0.6683,-0.6605,-0.6628,-0.6625,-0.6622,-0.6593,-0.6586,-0.658,-0.6659,-0.6659,-0.6659,0,0,-0.6987,-0.6968,-0.6934,-0.6913,-0.6881,-0.6867,-0.6859,-0.6826,-0.6814,-0.6771,-0.6767,-0.6737,-0.6682,-0.6659,-0.6639,-0.6589,-0.6587,-0.658,-0.6558,-0.6529,-0.6523,-0.6518,-0.6498,-0.6491,-0.6575,-0.6575,-0.6575,0,-0.6976,-0.6929,-0.6917,-0.6882,-0.6862,-0.6858,-0.6822,-0.6802,-0.6761,-0.6746,-0.6755,-0.6683,-0.6662,-0.6607,-0.6595,-0.6581,-0.6569,-0.6583,-0.6525,-0.652,-0.6515,-0.6495,-0.6488,-0.6574,-0.6574,-0.6574,-0.6574,0,-0.6915,-0.6882,-0.6858,-0.6818,-0.6795,-0.6761,-0.6742,-0.672,-0.6713,-0.6698,-0.6652,-0.6626,-0.6587,-0.6574,-0.6569,-0.6518,-0.6523,-0.6529,-0.6543,-0.6508,-0.6488,-0.6481,-0.6573,-0.6573,-0.6573,-0.6574,0,0,-0.6872,-0.6826,-0.6817,-0.6798,-0.6762,-0.6735,-0.6699,-0.6662,-0.6642,-0.6614,-0.6582,-0.6534,-0.6538,-0.6517,-0.6508,-0.6483,-0.6441,-0.6491,-0.649,-0.648,-0.6381,-0.6375,-0.6367,-0.644,-0.6439,-0.6438,-0.6383,0,-0.6827,-0.6764,-0.6751,-0.6695,-0.6663,-0.6658,-0.6626,-0.66,-0.6584,-0.6553,-0.6535,-0.6501,-0.651,-0.6497,-0.6472,-0.6451,-0.642,-0.6456,-0.6408,-0.6406,-0.6414,-0.6358,-0.6352,-0.6301,-0.6376,-0.6374,-0.6373,0,-0.6766,-0.6736,-0.6677,-0.6643,-0.6629,-0.6601,-0.6564,-0.6536,-0.6505,-0.6495,-0.647,-0.6463,-0.6423,-0.6441,-0.6385,-0.6409,-0.6388,-0.6375,-0.6373,-0.6366,-0.6386,-0.6347,-0.6285,-0.6277,-0.6362,-0.6363,-0.6364,0,-0.6738,-0.6682,-0.6639,-0.6623,-0.6583,-0.6563,-0.6545,-0.6516,-0.6493,-0.6461,-0.6446,-0.641,-0.639,-0.6361,-0.6344,-0.6359,-0.6288,-0.6305,-0.6277,-0.6277,-0.6261,-0.6261,-0.6192,-0.6252,-0.6252,-0.6252,-0.6252,0,-0.6687,-0.6651,-0.6625,-0.6599,-0.6557,-0.6542,-0.65,-0.6483,-0.6456,-0.6424,-0.6418,-0.6388,-0.6369,-0.6336,-0.6322,-0.6276,-0.6268,-0.6257,-0.6253,-0.6256,-0.6257,-0.6241,-0.6243,-0.625,-0.625,-0.6251,-0.6251,0,-0.6648,-0.663,-0.6582,-0.6548,-0.6538,-0.6508,-0.6478,-0.6451,-0.6435,-0.6395,-0.6384,-0.6359,-0.6319,-0.63,-0.6251,-0.6242,-0.6188,-0.6188,-0.6199,-0.6197,-0.6168,-0.617,-0.6085,-0.6071,-0.6142,-0.6141,-0.6141,0,-0.6616,-0.6587,-0.655,-0.6528,-0.651,-0.6476,-0.6452,-0.6437,-0.6412,-0.6374,-0.6351,-0.6311,-0.6278,-0.6215,-0.6191,-0.6153,-0.615,-0.6123,-0.6144,-0.6147,-0.6146,-0.6147,-0.6143,-0.6118,-0.6117,-0.6117,-0.6116,0,-0.656,-0.6552,-0.6519,-0.6483,-0.6456,-0.6426,-0.6397,-0.638,-0.6359,-0.6332,-0.6291,-0.6266,-0.6215,-0.6174,-0.6134,-0.6115,-0.611,-0.611,-0.6101,-0.6102,-0.6108,-0.6102,-0.6185,-0.6112,-0.6112,-0.6112,-0.6113,-0.6113,-0.6521,-0.6494,-0.6463,-0.6426,-0.6403,-0.6375,-0.6347,-0.6327,-0.6294,-0.6251,-0.6244,-0.62,-0.6167,-0.6113,-0.6092,-0.6056,-0.6062,-0.605,-0.6046,-0.6042,-0.6039,-0.6116,-0.6049,-0.6049,-0.6049,-0.605,-0.605,0,-0.6462,-0.6442,-0.6408,-0.6367,-0.6338,-0.6338,-0.6305,-0.628,-0.6242,-0.6212,-0.618,-0.6132,-0.6092,-0.6065,-0.6024,-0.6001,-0.5998,-0.599,-0.5991,-0.5985,-0.6038,-0.6049,-0.5993,-0.5993,-0.5993,-0.5993,-0.5993,-0.5993,-0.6428,-0.6382,-0.637,-0.6312,-0.6291,-0.6248,-0.6229,-0.6203,-0.6179,-0.6126,-0.6093,-0.6076,-0.6046,-0.6003,-0.5966,-0.5959,-0.5943,-0.5935,-0.5927,-0.5976,-0.5982,-0.5988,-0.5998,-0.5932,-0.5932,-0.5877,-0.5877,-0.5876]}]]